Location: Unspecified
(0.0000°N, 1.0000°E)
Time: 15:25:14
(UTC+01:00)

Amateur Radio Satellites - All Passes

Search period start: 07 December 2016 14:55
Search period end: 08 December 2016 14:55
Location: Unspecified, 0.0000°N, 1.0000°E

Satellite Date Start Highest point End Downlink Frequencies (MHz)
Time Altitude Azimuth
AUBIESAT-1 07 Dec 14:59:40 15:03:45 49° 105° (ESE) 15:07:33 437.475
ITUPSAT 1 07 Dec 15:09:51 15:14:34 71° 102° (ESE) 15:19:20 437.325
BEESAT 3 07 Dec 15:10:02 15:12:07 14° 68° (ENE) 15:14:12 437.485
M-CUBED/EXP-1 PRIME 07 Dec 15:12:51 15:17:11 75° 285° (WNW) 15:21:12 437.505
Oscar 19 07 Dec 15:18:10 15:20:01 12° 257° (WSW) 15:21:52 437.125/150
Gurwin Techsat 1B 07 Dec 15:21:59 15:26:22 26° 257° (WSW) 15:30:44 435.225
MOZHAYETS 4 07 Dec 15:36:57 15:40:42 25° 102° (ESE) 15:44:28
AO-7 07 Dec 15:41:00 15:48:51 47° 74° (ENE) 15:56:40 29.400- 29.500
BEESAT 2 07 Dec 15:41:54 15:44:02 14° 68° (ENE) 15:46:10 435.950
ITAMSAT 1 07 Dec 15:46:00 15:51:15 87° 257° (WSW) 15:56:28 435.822/435.867
O/OREOS (USA 219) 07 Dec 15:55:19 15:59:44 47° 284° (WNW) 16:04:08 437.305
KKS-1 07 Dec 15:58:50 16:01:30 16° 103° (ESE) 16:04:09 437.445
SWISSCUBE 07 Dec 16:17:29 16:19:42 13° 283° (WNW) 16:21:56 437.505
BEESAT 07 Dec 16:21:17 16:23:36 14° 283° (WNW) 16:25:56 436.000
SRMSAT 07 Dec 16:34:37 16:35:11 10° 5° (N) 16:35:46 437.500
JUGNU 07 Dec 16:39:45 16:44:30 24° 17° (NNE) 16:49:13 437.505
BEESAT 3 07 Dec 16:46:36 16:49:30 19° 248° (WSW) 16:52:22 437.485
MOZHAYETS 4 07 Dec 17:15:04 17:17:35 15° 282° (WNW) 17:20:07
BEESAT 2 07 Dec 17:18:37 17:21:34 20° 248° (WSW) 17:24:31 435.950
CUBESAT XI-V 07 Dec 17:19:28 17:24:01 53° 102° (ESE) 17:28:37 437.345
HORYU 2 07 Dec 17:24:28 17:28:19 28° 78° (ENE) 17:32:07 437.375
BRITE-PL 07 Dec 17:26:53 17:30:43 37° 79° (ENE) 17:34:36 437.365/2234.400
KKS-1 07 Dec 17:34:19 17:37:47 22° 282° (WNW) 17:41:15 437.445
AO-7 07 Dec 17:35:10 17:41:14 23° 253° (WSW) 17:47:19 29.400- 29.500
STARS 07 Dec 17:35:35 17:39:53 56° 282° (WNW) 17:44:10 437.465
NOAA 15 07 Dec 17:50:23 17:53:20 15° 77° (ENE) 17:56:15 137.62
SO-50 07 Dec 17:57:41 17:59:18 12° 113° (ESE) 18:00:55 436.795
Cubesat XI-IV 07 Dec 17:58:04 18:01:25 17° 77° (ENE) 18:04:46 437.490
AIST 2 07 Dec 18:20:27 18:23:29 19° 68° (ENE) 18:26:30 435.215
SRMSAT 07 Dec 18:21:29 18:25:19 17° 14° (NNE) 18:29:08 437.500
YUBILEINY 07 Dec 18:23:18 18:29:51 24° 93° (E) 18:36:21 435.215
Cosmos 2491 07 Dec 18:23:28 18:30:33 28° 87° (E) 18:37:39 435.465 / 435.565
RS-15 07 Dec 18:26:55 18:38:48 68° 69° (ENE) 18:50:04 29.354- 29.394
JUGNU 07 Dec 18:27:52 18:33:43 63° 21° (NNE) 18:39:31 437.505
GOMX 1 07 Dec 18:32:53 18:37:07 78° 260° (W) 18:41:33 467.674
DOVE 4 07 Dec 18:36:04 18:40:05 34° 78° (ENE) 18:44:18 437.250
HORYU 2 07 Dec 19:02:30 19:04:34 13° 257° (WSW) 19:06:38 437.375
LilacSat-2 07 Dec 19:05:48 19:09:31 44° 259° (WSW) 19:13:13 437.200
CUTE-I 07 Dec 19:09:28 19:14:48 65° 257° (WSW) 19:20:06 437.470
CUTE 1.7 + AOD 2 07 Dec 19:28:02 19:30:03 13° 79° (ENE) 19:32:04 437.475
NOAA 15 07 Dec 19:28:08 19:32:49 33° 257° (WSW) 19:37:30 137.62
NOAA 18 07 Dec 19:30:53 19:36:22 67° 257° (WSW) 19:41:50 137.9125
SO-50 07 Dec 19:35:06 19:39:33 37° 292° (WNW) 19:43:59 436.795
Cubesat XI-IV 07 Dec 19:36:29 19:41:12 32° 257° (WSW) 19:45:56 437.490
CINEMA 3 07 Dec 19:43:10 19:47:43 48° 78° (ENE) 19:52:23 145.822/145.860
CANX-2 07 Dec 19:44:40 19:48:22 29° 79° (ENE) 19:52:01 2200.000
STRAND 1 07 Dec 19:54:08 19:59:12 80° 103° (ESE) 20:04:19 437.568
CUBEBUG 2 07 Dec 19:54:22 19:55:43 11° 78° (ENE) 19:57:05 437.445
AIST 2 07 Dec 19:59:02 20:01:42 16° 248° (WSW) 20:04:22 435.215
PHONESAT 2.4 07 Dec 20:06:42 20:08:39 18° 138° (SE) 20:10:37 2401.200-2431.200
SEEDS 07 Dec 20:06:56 20:10:37 30° 79° (E) 20:14:16 437.485
SRMSAT 07 Dec 20:09:22 20:14:53 40° 20° (NNE) 20:20:25 437.500
HO-68 07 Dec 20:14:49 20:21:56 72° 76° (ENE) 20:29:02 435.675
COMPASS 1 07 Dec 20:14:51 20:18:08 23° 79° (ENE) 20:21:22 437.405
JUGNU 07 Dec 20:17:07 20:22:45 47° 201° (SSW) 20:28:22 437.505
DOVE 4 07 Dec 20:17:08 20:17:36 10° 260° (W) 20:18:04 437.250
YUBILEINY 07 Dec 20:18:12 20:26:14 42° 273° (W) 20:34:16 435.215
Cosmos 2491 07 Dec 20:19:14 20:26:58 37° 267° (W) 20:34:48 435.465 / 435.565
Cosmos 2504 07 Dec 20:27:54 20:35:40 82° 273° (W) 20:44:02 435.465 / 435.565
AIST 1 07 Dec 20:30:10 20:34:06 37° 274° (W) 20:38:04
UWE-3 07 Dec 20:31:27 20:35:00 22° 78° (ENE) 20:38:32 435.000/436.395/437.385
RS-15 07 Dec 20:43:01 20:50:44 20° 248° (WSW) 20:58:20 29.354- 29.394
CUSAT 1 07 Dec 20:47:10 20:51:51 28° 90° (E) 20:57:31 437.405
CUTE 1.7 + AOD 2 07 Dec 21:02:14 21:05:38 23° 258° (WSW) 21:09:00 437.475
PRISM 07 Dec 21:07:40 21:10:53 22° 102° (ESE) 21:14:06 437.425
ZACube-1 07 Dec 21:08:23 21:12:36 36° 79° (ENE) 21:16:49 437.345
FUNcube-1 07 Dec 21:15:06 21:19:24 41° 79° (ENE) 21:23:40 145.935
AAUSAT CUBESAT 2 07 Dec 21:17:35 21:21:36 53° 258° (WSW) 21:25:36 437.432
CANX-2 07 Dec 21:23:09 21:23:55 10° 258° (WSW) 21:24:41 2200.000
CUBEBUG 2 07 Dec 21:27:43 21:32:02 36° 259° (WSW) 21:36:23 437.445
PHONESAT 2.4 07 Dec 21:42:21 21:43:44 13° 318° (NW) 21:45:07 2401.200-2431.200
Oscar 11 07 Dec 21:43:45 21:48:06 82° 258° (WSW) 21:52:25 145.826/435.025
DANDE 07 Dec 21:48:25 21:52:02 25° 91° (E) 21:56:32 436.750
COMPASS 1 07 Dec 21:51:31 21:53:24 13° 258° (WSW) 21:55:17 437.405
SRMSAT 07 Dec 21:58:11 22:04:06 73° 201° (SSW) 22:10:03 437.500
DELFI C3 07 Dec 22:02:27 22:06:14 46° 79° (ENE) 22:09:59 145.870
HO-68 07 Dec 22:07:47 22:09:15 11° 254° (WSW) 22:10:44 435.675
UWE-3 07 Dec 22:07:55 22:11:09 19° 258° (WSW) 22:14:24 435.000/436.395/437.385
JUGNU 07 Dec 22:07:58 22:12:04 19° 195° (SSW) 22:16:11 437.505
UNISAT 6 07 Dec 22:08:54 22:12:13 22° 102° (ESE) 22:15:32 437.425
HUMSAT D 07 Dec 22:22:24 22:26:25 40° 79° (ENE) 22:30:23 437.325/437.525
CUSAT 1 07 Dec 22:29:01 22:33:32 24° 260° (W) 22:38:55 437.405
TIGRISAT 07 Dec 22:37:31 22:41:40 54° 102° (ESE) 22:45:49 435.000
ANTELSAT 07 Dec 22:39:22 22:43:35 64° 102° (ESE) 22:47:47 437.575/2403.000
JAS-2 07 Dec 22:43:14 22:44:08 10° 107° (ESE) 22:45:04 435.910
PRISM 07 Dec 22:43:44 22:45:54 14° 282° (WNW) 22:48:05 437.425
ZACube-1 07 Dec 22:48:15 22:48:35 10° 258° (WSW) 22:48:55 437.345
PCSat 07 Dec 22:51:50 22:57:11 68° 251° (WSW) 23:02:33 145.827
Cosmos 2499 07 Dec 23:28:43 23:30:20 11° 92° (E) 23:31:57 435.465 / 435.565
DANDE 07 Dec 23:32:07 23:34:41 15° 257° (WSW) 23:37:37 436.750
AO-85 07 Dec 23:41:34 23:42:23 10° 114° (ESE) 23:43:12 145.980
UNISAT 6 07 Dec 23:46:30 23:48:40 14° 282° (WNW) 23:50:52 437.425
SRMSAT 07 Dec 23:48:26 23:53:26 28° 198° (SSW) 23:58:29 437.500
NANOSAT C BR1 08 Dec 00:00:04 00:04:04 45° 102° (ESE) 00:08:03 145.865
JUGNU 08 Dec 00:00:47 00:01:57 11° 186° (S) 00:03:07 437.505
ESTCUBE 1 08 Dec 00:02:24 00:06:53 85° 78° (ENE) 00:11:21 437.505/2401.250
AISAT 08 Dec 00:02:27 00:06:10 27° 78° (ENE) 00:09:51 437.250
QB50P2 08 Dec 00:07:24 00:11:36 73° 103° (ESE) 00:15:47 145.880/145.840
POLYITAN 1 08 Dec 00:07:55 00:12:04 68° 102° (ESE) 00:16:14 437.675
50 SAT 08 Dec 00:20:12 00:23:23 32° 79° (ENE) 00:26:32 437.505
QB50P1 08 Dec 00:20:22 00:24:32 79° 283° (WNW) 00:28:44 145.935-145.965
DUCHIFAT 1 08 Dec 00:21:11 00:25:21 86° 102° (ESE) 00:29:31 145.980
JAS-2 08 Dec 00:23:06 00:28:35 56° 281° (WNW) 00:34:47 435.910
CUBEBUG 1 08 Dec 00:23:18 00:27:37 88° 85° (E) 00:31:58 437.445
VELOX 1 08 Dec 00:38:31 00:42:55 85° 78° (ENE) 00:47:18 145.980
POPSAT HIP 1 08 Dec 00:42:22 00:46:13 37° 282° (WNW) 00:50:06 437.405
DX 1 08 Dec 00:46:17 00:50:26 46° 78° (ENE) 00:54:34 434.975-435.025
UKube-1 08 Dec 00:50:11 00:54:06 35° 78° (ENE) 00:58:01 .
GONETS M04 08 Dec 00:55:11 01:03:55 69° 93° (E) 01:12:32
SPROUT 08 Dec 00:58:45 01:03:03 83° 258° (WSW) 01:07:20 437.525
BUGSAT 1 08 Dec 01:11:11 01:15:12 60° 282° (WNW) 01:19:12 437.445
Cosmos 2499 08 Dec 01:14:52 01:22:50 76° 273° (W) 01:31:24 435.465 / 435.565
AO-85 08 Dec 01:17:35 01:22:45 51° 291° (WNW) 01:27:41 145.980
ISS 08 Dec 01:29:04 01:32:11 40° 55° (NE) 01:35:18 145.825
SRMSAT 08 Dec 01:40:25 01:43:16 14° 190° (S) 01:46:08 437.500
AISAT 08 Dec 01:40:25 01:42:21 13° 258° (WSW) 01:44:17 437.250
JUGNU 08 Dec 01:51:54 01:52:10 10° 175° (S) 01:52:25 437.505
Oscar 19 08 Dec 02:09:25 02:14:36 79° 282° (WNW) 02:19:49 437.125/150
TISAT 1 08 Dec 02:14:18 02:18:30 72° 259° (WSW) 02:22:42 437.305
Gurwin Techsat 1B 08 Dec 02:19:54 02:25:06 57° 103° (ESE) 02:30:19 435.225
O/OREOS (USA 219) 08 Dec 02:29:45 02:31:30 12° 75° (ENE) 02:33:15 437.305
ITAMSAT 1 08 Dec 02:44:02 02:46:57 15° 103° (ESE) 02:49:53 435.822/435.867
GONETS M04 08 Dec 02:56:44 03:00:18 13° 273° (W) 03:03:52
AUBIESAT-1 08 Dec 02:58:11 03:01:43 42° 74° (ENE) 03:05:30 437.475
SWISSCUBE 08 Dec 02:59:28 03:04:12 61° 78° (ENE) 03:08:53 437.505
BEESAT 3 08 Dec 03:02:09 03:04:06 13° 112° (ESE) 03:06:03 437.485
BEESAT 08 Dec 03:03:19 03:08:02 59° 78° (ENE) 03:12:43 436.000
M-CUBED/EXP-1 PRIME 08 Dec 03:11:57 03:15:34 81° 254° (WSW) 03:19:31 437.505
ITUPSAT 1 08 Dec 03:32:12 03:36:56 58° 258° (WSW) 03:41:37 437.325
BEESAT 2 08 Dec 03:35:08 03:37:14 14° 112° (ESE) 03:39:21 435.950
JUGNU 08 Dec 03:38:19 03:42:07 17° 166° (SSE) 03:45:57 437.505
MOZHAYETS 4 08 Dec 03:53:06 03:57:30 43° 78° (ENE) 04:01:50
AO-7 08 Dec 04:06:50 04:15:11 76° 106° (ESE) 04:23:33 29.400- 29.500
O/OREOS (USA 219) 08 Dec 04:06:51 04:10:36 27° 255° (WSW) 04:14:24 437.305
KKS-1 08 Dec 04:10:24 04:13:55 23° 78° (ENE) 04:17:26 437.445
ITAMSAT 1 08 Dec 04:21:35 04:26:08 32° 283° (WNW) 04:30:42 435.822/435.867
BEESAT 3 08 Dec 04:38:43 04:41:27 19° 292° (WNW) 04:44:12 437.485
BEESAT 2 08 Dec 05:12:02 05:14:45 18° 292° (WNW) 05:17:30 435.950
SRMSAT 08 Dec 05:21:01 05:23:56 14° 170° (S) 05:26:50 437.500
GOMX 1 08 Dec 05:21:08 05:23:27 13° 101° (E) 05:25:43 467.674
JUGNU 08 Dec 05:26:01 05:31:32 40° 160° (SSE) 05:37:06 437.505
HORYU 2 08 Dec 05:36:29 05:40:36 40° 102° (ESE) 05:44:44 437.375
CUBESAT XI-V 08 Dec 05:37:46 05:42:23 86° 256° (WSW) 05:46:58 437.345
STARS 08 Dec 05:46:34 05:50:41 39° 258° (WSW) 05:54:48 437.465
KKS-1 08 Dec 05:47:36 05:50:12 15° 257° (WSW) 05:52:48 437.445
BRITE-PL 08 Dec 05:51:47 05:57:28 85° 283° (WNW) 06:03:07 437.365/2234.400
AO-7 08 Dec 06:04:21 06:07:29 13° 288° (WNW) 06:10:39 29.400- 29.500
RS-15 08 Dec 06:08:43 06:19:33 56° 110° (ESE) 06:30:52 29.354- 29.394
SO-50 08 Dec 06:08:49 06:11:55 19° 68° (ENE) 06:15:03 436.795
CUTE-I 08 Dec 06:10:05 06:14:16 24° 103° (ESE) 06:18:28 437.470
AIST 2 08 Dec 06:18:29 06:21:41 22° 112° (ESE) 06:24:53 435.215
NOAA 15 08 Dec 06:25:34 06:30:32 43° 103° (ESE) 06:35:33 137.62
Cubesat XI-IV 08 Dec 06:35:46 06:40:51 49° 103° (ESE) 06:45:58 437.490
NOAA 18 08 Dec 06:35:49 06:40:23 27° 103° (ESE) 06:44:57 137.9125
STRAND 1 08 Dec 06:51:06 06:53:00 12° 77° (ENE) 06:54:53 437.568
Cosmos 2504 08 Dec 06:51:37 06:55:19 14° 85° (E) 06:58:55 435.465 / 435.565
YUBILEINY 08 Dec 06:54:55 07:03:18 49° 87° (E) 07:11:41 435.215
Cosmos 2491 08 Dec 06:55:51 07:04:27 56° 93° (E) 07:12:58 435.465 / 435.565
GOMX 1 08 Dec 06:56:15 07:01:17 40° 282° (WNW) 07:06:08 467.674
DOVE 4 08 Dec 06:56:25 07:01:24 70° 102° (ESE) 07:06:07 437.250
LilacSat-2 08 Dec 07:00:08 07:03:48 55° 282° (WNW) 07:07:31 437.200
AIST 1 08 Dec 07:02:08 07:03:22 11° 86° (E) 07:04:35
SRMSAT 08 Dec 07:08:42 07:13:46 28° 162° (SSE) 07:18:50 437.500
JUGNU 08 Dec 07:14:40 07:20:38 75° 339° (NNW) 07:26:37 437.505
CUTE 1.7 + AOD 2 08 Dec 07:33:33 07:36:14 16° 102° (ESE) 07:38:54 437.475
SO-50 08 Dec 07:48:58 07:52:07 19° 247° (WSW) 07:55:17 436.795
CUTE-I 08 Dec 07:50:04 07:54:02 22° 283° (WNW) 07:58:02 437.470
CANX-2 08 Dec 07:50:45 07:54:38 36° 102° (ESE) 07:58:33 2200.000
AIST 2 08 Dec 07:58:04 07:59:54 13° 292° (WNW) 08:01:44 435.215
CINEMA 3 08 Dec 08:00:02 08:04:29 82° 102° (ESE) 08:08:46 145.822/145.860
CUBEBUG 2 08 Dec 08:06:00 08:08:05 14° 102° (ESE) 08:10:09 437.445
HO-68 08 Dec 08:06:25 08:13:28 61° 104° (ESE) 08:20:32 435.675
NOAA 15 08 Dec 08:08:12 08:10:02 12° 283° (WNW) 08:11:53 137.62
SEEDS 08 Dec 08:11:50 08:15:41 36° 102° (ESE) 08:19:35 437.485
NOAA 18 08 Dec 08:16:49 08:20:46 20° 284° (WNW) 08:24:43 137.9125
COMPASS 1 08 Dec 08:18:36 08:22:06 26° 102° (ESE) 08:25:38 437.405
RS-15 08 Dec 08:22:58 08:31:39 26° 293° (WNW) 08:40:42 29.354- 29.394
STRAND 1 08 Dec 08:27:05 08:31:53 40° 257° (WSW) 08:36:40 437.568
AIST 1 08 Dec 08:37:00 08:40:40 27° 266° (W) 08:44:21
Cosmos 2504 08 Dec 08:40:28 08:48:31 60° 268° (W) 08:56:03 435.465 / 435.565
UWE-3 08 Dec 08:42:34 08:46:03 26° 102° (ESE) 08:49:31 435.000/436.395/437.385
YUBILEINY 08 Dec 08:53:34 08:59:42 21° 267° (W) 09:05:52 435.215
Cosmos 2491 08 Dec 08:55:36 09:00:52 17° 273° (W) 09:06:09 435.465 / 435.565
SRMSAT 08 Dec 08:57:08 09:03:08 73° 158° (SSE) 09:09:08 437.500
PHONESAT 2.4 08 Dec 08:59:17 09:01:40 31° 222° (SW) 09:04:04 2401.200-2431.200
JUGNU 08 Dec 09:04:45 09:09:49 28° 342° (NNW) 09:14:54 437.505
CUTE 1.7 + AOD 2 08 Dec 09:08:46 09:11:47 19° 281° (WNW) 09:14:50 437.475
PRISM 08 Dec 09:10:21 09:13:34 23° 78° (ENE) 09:16:47 437.425
ZACube-1 08 Dec 09:18:18 09:22:16 46° 102° (ESE) 09:26:15 437.345
AAUSAT CUBESAT 2 08 Dec 09:20:59 09:24:59 47° 281° (WNW) 09:29:01 437.432
FUNcube-1 08 Dec 09:24:42 09:28:42 52° 102° (ESE) 09:32:44 145.935
CUSAT 1 08 Dec 09:28:21 09:33:13 84° 95° (E) 09:36:51 437.405
CUBEBUG 2 08 Dec 09:41:17 09:44:27 21° 282° (WNW) 09:47:37 437.445
PCSat 08 Dec 09:45:55 09:50:15 25° 110° (ESE) 09:54:34 145.827
Oscar 11 08 Dec 09:52:25 09:56:38 60° 282° (WNW) 10:00:55 145.826/435.025
COMPASS 1 08 Dec 09:56:02 09:57:23 11° 281° (WNW) 09:58:45 437.405
HO-68 08 Dec 09:57:29 10:00:49 14° 285° (WNW) 10:04:10 435.675
DELFI C3 08 Dec 10:00:48 10:04:36 44° 101° (ESE) 10:08:26 145.870
UNISAT 6 08 Dec 10:21:07 10:25:28 37° 78° (ENE) 10:29:47 437.425
UWE-3 08 Dec 10:21:20 10:22:15 11° 282° (WNW) 10:23:09 435.000/436.395/437.385
HUMSAT D 08 Dec 10:26:58 10:30:52 45° 102° (ESE) 10:34:50 437.325/437.525
DANDE 08 Dec 10:33:15 10:39:55 68° 273° (W) 10:44:54 436.750
SRMSAT 08 Dec 10:46:45 10:52:22 41° 340° (NNW) 10:57:59 437.500
PRISM 08 Dec 10:46:58 10:48:36 12° 258° (WSW) 10:50:13 437.425
TIGRISAT 08 Dec 10:50:01 10:54:43 87° 78° (ENE) 10:59:25 435.000
ANTELSAT 08 Dec 10:52:04 10:56:47 82° 260° (W) 11:01:29 437.575/2403.000
JUGNU 08 Dec 10:56:33 10:59:29 14° 349° (N) 11:02:25 437.505
POPSAT HIP 1 08 Dec 11:16:29 11:16:52 10° 78° (ENE) 11:17:14 437.405
PCSat 08 Dec 11:29:18 11:33:22 22° 290° (WNW) 11:37:26 145.827
GONETS M04 08 Dec 11:36:45 11:40:54 14° 87° (E) 11:45:03
Cosmos 2499 08 Dec 11:37:20 11:40:59 14° 85° (E) 11:44:33 435.465 / 435.565
AO-85 08 Dec 11:53:14 11:54:39 12° 69° (ENE) 11:56:04 145.980
JAS-2 08 Dec 11:55:57 12:03:21 81° 78° (ENE) 12:09:54 435.910
UNISAT 6 08 Dec 12:01:03 12:01:52 10° 258° (WSW) 12:02:41 437.425
NANOSAT C BR1 08 Dec 12:05:36 12:09:47 56° 78° (ENE) 12:13:57 145.865
50 SAT 08 Dec 12:07:36 12:10:17 20° 102° (ESE) 12:12:59 437.505
AISAT 08 Dec 12:13:35 12:17:44 39° 102° (ESE) 12:21:52 437.250
QB50P2 08 Dec 12:13:36 12:17:53 90° 229° (SW) 12:22:10 145.880/145.840
POLYITAN 1 08 Dec 12:14:03 12:18:22 85° 77° (ENE) 12:22:39 437.675
ESTCUBE 1 08 Dec 12:16:22 12:20:50 61° 282° (WNW) 12:25:19 437.505/2401.250
QB50P1 08 Dec 12:26:23 12:30:37 63° 258° (WSW) 12:34:51 145.935-145.965
DUCHIFAT 1 08 Dec 12:26:31 12:30:46 78° 259° (W) 12:35:00 145.980
CUBEBUG 1 08 Dec 12:33:17 12:37:39 66° 282° (WNW) 12:42:01 437.445
SRMSAT 08 Dec 12:38:02 12:41:58 18° 346° (NNW) 12:45:53 437.500
POPSAT HIP 1 08 Dec 12:48:35 12:52:21 31° 258° (WSW) 12:56:08 437.405
VELOX 1 08 Dec 12:50:01 12:54:25 66° 283° (WNW) 12:58:50 145.980
DX 1 08 Dec 12:55:39 12:59:58 64° 102° (ESE) 13:04:19 434.975-435.025
UKube-1 08 Dec 12:58:20 13:02:29 46° 102° (ESE) 13:06:38 .
ISS 08 Dec 13:03:31 13:06:14 24° 126° (SE) 13:08:56 145.825
SPROUT 08 Dec 13:06:01 13:10:13 64° 282° (WNW) 13:14:27 437.525
Oscar 19 08 Dec 13:06:13 13:09:17 16° 77° (ENE) 13:12:21 437.125/150
BUGSAT 1 08 Dec 13:14:03 13:18:08 54° 258° (WSW) 13:22:14 437.445
Cosmos 2499 08 Dec 13:26:16 13:33:55 56° 267° (W) 13:41:04 435.465 / 435.565
GONETS M04 08 Dec 13:28:41 13:37:18 65° 267° (W) 13:46:01
AO-85 08 Dec 13:31:39 13:34:44 22° 247° (WSW) 13:37:58 145.980
ITUPSAT 1 08 Dec 14:19:05 14:21:31 14° 103° (ESE) 14:23:58 437.325
TISAT 1 08 Dec 14:19:32 14:23:38 59° 282° (WNW) 14:27:44 437.305
SRMSAT 08 Dec 14:31:18 14:32:05 10° 355° (N) 14:32:53 437.500
JUGNU 08 Dec 14:37:04 14:39:48 13° 10° (N) 14:42:32 437.505
O/OREOS (USA 219) 08 Dec 14:39:03 14:42:35 22° 105° (ESE) 14:46:05 437.305
Oscar 19 08 Dec 14:43:55 14:48:20 30° 257° (WSW) 14:52:45 437.125/150
AO-7 08 Dec 14:45:25 14:49:16 14° 73° (ENE) 14:53:06 29.400- 29.500
